Weather History for Jerome, ID

Change the Weather History Date:

Wednesday, October 9, 2013

  Actual Average Record
Temperature  
Mean Temperature 43 °F 52 °F  
Max Temperature 55 °F 64 °F 89 °F (1953)
Min Temperature 31 °F 39 °F 23 °F (1985)
Degree Days  
Heating Degree Days 22 13  
Month to date heating degree days 164 108  
Since 1 July heating degree days 302 311  
Cooling Degree Days 0 0  
Month to date cooling degree days 0 0  
Year to date cooling degree days 904 509  
Moisture  
Dew Point 32 °F    
Average Humidity 66    
Maximum Humidity 85    
Minimum Humidity 46    
Precipitation  
Precipitation 0.00 in 0.02 in 0.39 in (1959)
Month to date precipitation 0.02 0.18  
Year to date precipitation 3.04 7.47  
Sea Level Pressure  
Sea Level Pressure 29.83 in    
Wind  
Wind Speed 5 mph (SSW)    
Max Wind Speed 9 mph    
Max Gust Speed 13 mph    
Visibility 10 miles    
Events      
T = Trace of Precipitation, MM = Missing Value Source: NWS Daily Summary

Daily Weather History Graph

Daily Weather History Graph

Search for Another Location

Airport:

Trip Planner

Search our weather history database for the weather conditions in past years. The results will help you decide how hot, cold, wet, or windy it might be!

Date:

Astronomy

Oct. 09, 2013 Rise Set
Actual Time 7:44 AM MDT 7:04 PM MDT
Civil Twilight 7:16 AM MDT 7:33 PM MDT
Nautical Twilight 6:43 AM MDT 8:05 PM MDT
Astronomical Twilight 6:10 AM MDT 8:38 PM MDT
Moon 12:49 PM MDT (10/9) 10:38 PM MDT (10/9)
Length of Visible Light 12h 16m
Length of Day
11h 20m
Waxing Crescent, 26% of the Moon is Illuminated
Oct 9
Waxing Crescent
Oct 11
First Quarter
Oct 18
Full
Oct 26
Last Quarter
Nov 3
New

Hourly Weather History & Observations

Time (MDT) Temp. Windchill Dew Point Humidity Pressure Visibility Wind Dir Wind Speed Gust Speed Precip Events Conditions
12:53 AM 35.1 °F 28.6 °F 28.0 °F 76% 29.86 in 10.0 mi ESE 8.1 mph - N/A   Clear
1:53 AM 37.9 °F 34.4 °F 28.0 °F 68% 29.84 in 10.0 mi SSE 4.6 mph - N/A   Clear
2:53 AM 37.0 °F - 28.0 °F 70% 29.85 in 10.0 mi Calm Calm - N/A   Clear
3:53 AM 37.0 °F 33.3 °F 28.9 °F 73% 29.84 in 10.0 mi SSW 4.6 mph - N/A   Clear
4:53 AM 34.0 °F - 28.9 °F 82% 29.86 in 10.0 mi Calm Calm - N/A   Clear
5:53 AM 34.0 °F 29.8 °F 28.0 °F 79% 29.86 in 10.0 mi East 4.6 mph - N/A   Scattered Clouds
6:53 AM 35.1 °F 30.1 °F 28.9 °F 78% 29.86 in 10.0 mi ESE 5.8 mph - N/A   Clear
7:53 AM 34.0 °F 28.8 °F 28.9 °F 82% 29.86 in 10.0 mi ESE 5.8 mph - N/A   Clear
8:53 AM 36.0 °F 32.1 °F 30.9 °F 82% 29.89 in 10.0 mi SE 4.6 mph - N/A   Clear
9:53 AM 39.9 °F 37.8 °F 35.1 °F 83% 29.89 in 10.0 mi SSW 3.5 mph - N/A   Clear
10:53 AM 42.1 °F 37.7 °F 35.1 °F 76% 29.88 in 10.0 mi WSW 6.9 mph - N/A   Partly Cloudy
11:53 AM 44.1 °F 40.8 °F 36.0 °F 73% 29.88 in 10.0 mi WNW 5.8 mph - N/A   Partly Cloudy
12:53 PM 46.0 °F 42.5 °F 36.0 °F 68% 29.87 in 10.0 mi West 6.9 mph - N/A   Partly Cloudy
1:53 PM 48.0 °F - 35.1 °F 61% 29.83 in 10.0 mi Variable 5.8 mph - N/A   Clear
2:53 PM 52.0 °F - 35.1 °F 53% 29.80 in 10.0 mi WNW 6.9 mph - N/A   Clear
3:53 PM 53.1 °F - 35.1 °F 50% 29.78 in 10.0 mi West 9.2 mph - N/A   Clear
4:53 PM 53.1 °F - 33.1 °F 47% 29.78 in 10.0 mi WSW 6.9 mph - N/A   Clear
5:53 PM 53.1 °F - 33.1 °F 47% 29.77 in 10.0 mi WSW 8.1 mph - N/A   Clear
6:53 PM 51.1 °F - 32.0 °F 48% 29.78 in 10.0 mi West 4.6 mph - N/A   Clear
7:53 PM 48.9 °F - 32.0 °F 52% 29.79 in 10.0 mi WSW 4.6 mph - N/A   Clear
8:53 PM 48.9 °F - 33.1 °F 54% 29.80 in 10.0 mi SW 4.6 mph - N/A   Clear
9:53 PM 48.0 °F - 34.0 °F 58% 29.81 in 10.0 mi SSW 5.8 mph - N/A   Mostly Cloudy
10:53 PM 45.0 °F 42.6 °F 34.0 °F 65% 29.82 in 10.0 mi South 4.6 mph - N/A   Clear
11:53 PM 43.0 °F 41.3 °F 34.0 °F 71% 29.82 in 10.0 mi South 3.5 mph - N/A   Clear